Search for airport 
image banner adimage banner ad
image banner ad

DAAG - Alger / Houari Boumediene

Located in Alger, Algeria

ICAO - DAAG, IATA - ALG

Data provided by Airmate  

General information

Coordinates: N36°41'38" E3°12'52"
Elevation is 82 feet MSL.
 
Rated:
View ratings:
[VIEW]
View others Airports in Boumerdès Province

Operational data

Open for public use
Current time UTC:
Current local time:
Weather
METAR: DAAG 290200Z 00000KT 9999 FEW023 13/12 Q1017
TAF: TAF DAAG 282300Z 2900/2924 VRB02KT 9999 FEW023 BECMG 2909/2912 32010KT
View NOTAMs / SUP AIP / TFR affecting this airport [VIEW]
Communications frequencies: [VIEW]

Runways:

RWY identifierQFULength (ft)Width (ft)SurfaceLDA (ft)
0553°11483197ASP
23233°11483197
0992°11483148
27272°11483148

Airport contact information

Address: Alger Algeria

Satellite view of DAAG